STARLINK-34887 (65103 NORAD) Tracking and Keplerian Element Data

This shows tracking and keplerian element data for the satellite.

Feedback or suggestion? Click here.




ElementValue
Catalog65103
NameSTARLINK-34887
Epoch Orbit2125
Epoch Day353.82063442
Epoch Year2025
RAAN37.4906
Inclination53.1597
Eccentricity0.0001263
Argument of Perigee90.1502
Mean Anonmoly269.9644
Mean Motion15.30193851
Decay Rate0.00016371
L11 65103U 25167AB 25353.82063442 .00016371 00000+0 56376-3 0 9990
L22 65103 53.1597 37.4906 0001263 90.1502 269.9644 15.30193851 21251



Live tracking and technical data element details for STARLINK-34887 (NORAD 65103). STARLINK-34887 can be tracked NOW for your location showing map with azimuth and elevation plus other details from your city location.







IsCatalogInMostPopularTable: catalog: 65103, numindb: 3
Update: records affected: 1



GetName: 65103 STARLINK-34887

Hit Count: updated at: Sun, 08 Feb 2026 07:09:39 GMT